Groton, CT

6:52 AM EDT on April 23, 2017 (GMT -0400)
Groton-New London

Weather History for KGON - October, 2010

Change the Weather History Date:

Friday, October 29, 2010

  Actual Average Record
Temperature  
Mean Temperature 50 °F -  
Max Temperature 57 °F 59 °F 77 °F (1971)
Min Temperature 44 °F 37 °F 25 °F (1959)
Degree Days  
Heating Degree Days 14    
Moisture  
Dew Point 35 °F    
Average Humidity 55    
Maximum Humidity 68    
Minimum Humidity 48    
Precipitation  
Precipitation 0.00 in - - ()
Sea Level Pressure  
Sea Level Pressure 29.90 in    
Wind  
Wind Speed 10 mph (NW)    
Max Wind Speed 17 mph    
Max Gust Speed 28 mph    
Visibility 10 miles    
Events      
Averages and records for this station are not official NWS values.
T = Trace of Precipitation, MM = Missing Value Source: NWS Daily Summary

Daily Weather History Graph

Daily Weather History Graph

Search for Another Location

Airport or City:

Trip Planner

Search our weather history database for the weather conditions in past years. The results will help you decide how hot, cold, wet, or windy it might be!

Date:

Astronomy

Oct. 29, 2010 Rise Set
Actual Time 7:15 AM EDT 5:47 PM EDT
Civil Twilight 6:47 AM EDT 6:15 PM EDT
Nautical Twilight 6:14 AM EDT 6:48 PM EDT
Astronomical Twilight 5:42 AM EDT 7:20 PM EDT
Moon 11:24 PM EDT (10/29) 1:16 PM EDT (10/29)
Length of Visible Light 11h 28m
Length of Day
10h 31m
Waning Gibbous, 60% of the Moon is Illuminated
Oct 29
Waning Gibbous
Oct 30
Last Quarter
Nov 6
New
Nov 13
First Quarter
Nov 21
Full

Hourly Weather History & Observations

Time (EDT) Temp. Windchill Dew Point Humidity Pressure Visibility Wind Dir Wind Speed Gust Speed Precip Events Conditions
12:56 AM 55.0 °F - 36.0 °F 49% 29.84 in 10.0 mi North 13.8 mph 23.0 mph N/A   Clear
1:56 AM 53.1 °F - 36.0 °F 52% 29.86 in 10.0 mi North 10.4 mph - N/A   Clear
2:56 AM 52.0 °F - 36.0 °F 54% 29.88 in 10.0 mi Calm Calm - N/A   Clear
3:56 AM 50.0 °F - 36.0 °F 59% 29.88 in 10.0 mi WNW 6.9 mph - N/A   Clear
4:56 AM 48.9 °F - 36.0 °F 61% 29.88 in 10.0 mi NNW 4.6 mph - N/A   Clear
5:56 AM 48.0 °F - 37.0 °F 66% 29.89 in 10.0 mi NW 3.5 mph - N/A   Clear
6:56 AM 46.9 °F - 37.0 °F 68% 29.89 in 10.0 mi NW 6.9 mph - N/A   Clear
7:56 AM 48.9 °F - 37.9 °F 66% 29.90 in 10.0 mi NNW 9.2 mph - N/A   Clear
8:56 AM 53.1 °F - 39.0 °F 59% 29.90 in 10.0 mi NNW 10.4 mph - N/A   Clear
9:56 AM 55.0 °F - 39.0 °F 55% 29.90 in 10.0 mi NNW 10.4 mph - N/A   Overcast
10:56 AM 55.0 °F - 37.9 °F 53% 29.90 in 10.0 mi NW 15.0 mph - N/A   Overcast
11:56 AM 54.0 °F - 39.0 °F 57% 29.89 in 10.0 mi NW 11.5 mph - N/A   Overcast
12:56 PM 55.4 °F - 39.2 °F 54% 29.87 in 10.0 mi NW 11.5 mph - N/A   Overcast
1:56 PM 55.9 °F - 39.0 °F 53% 29.86 in 10.0 mi NW 11.5 mph 17.3 mph N/A   Overcast
2:56 PM 55.0 °F - 37.9 °F 53% 29.85 in 10.0 mi NNW 16.1 mph - N/A   Mostly Cloudy
3:56 PM 55.0 °F - 37.0 °F 51% 29.86 in 10.0 mi NNW 12.7 mph 20.7 mph N/A   Overcast
4:56 PM 54.0 °F - 37.0 °F 53% 29.86 in 10.0 mi NW 13.8 mph 21.9 mph N/A   Mostly Cloudy
5:56 PM 53.1 °F - 34.0 °F 48% 29.88 in 10.0 mi NW 17.3 mph 27.6 mph N/A   Overcast
6:56 PM 51.1 °F - 33.1 °F 50% 29.91 in 10.0 mi NW 12.7 mph - N/A   Partly Cloudy
7:56 PM 50.0 °F - 30.9 °F 48% 29.93 in 10.0 mi WNW 16.1 mph - N/A   Clear
8:56 PM 48.9 °F - 30.0 °F 48% 29.95 in 10.0 mi NW 12.7 mph 23.0 mph N/A   Clear
9:56 PM 48.0 °F - 28.9 °F 48% 29.98 in 10.0 mi NNW 17.3 mph 27.6 mph N/A   Clear
10:56 PM 46.0 °F 40.6 °F 28.0 °F 50% 29.98 in 10.0 mi NW 11.5 mph 18.4 mph N/A   Clear
11:56 PM 44.1 °F 40.8 °F 28.9 °F 55% 29.98 in 10.0 mi WNW 5.8 mph - N/A   Clear